| time (UTC) | temp F | wind direction | speed knots | gust knots | rain 1hr in | rain 24hr in | rain mn in | humidity % | barometer mb |
| 20260504021623 | 50 | 359 | 4.3 | 9.6 | 0.00 | 0.00 | 0.00 | 54 | 1018.6 |
| 20260504021346 | 50 | 359 | 4.3 | 8.7 | 0.00 | 0.00 | 0.00 | 53 | 1018.5 |
| 20260504021154 | 50 | 356 | 4.3 | 8.7 | 0.00 | 0.00 | 0.00 | 53 | 1018.5 |
| 20260504020936 | 50 | 359 | 4.3 | 8.7 | 0.00 | 0.00 | 0.00 | 53 | 1018.5 |
| 20260504020738 | 50 | 339 | 4.3 | 8.7 | 0.00 | 0.00 | 0.00 | 53 | 1018.5 |
| 20260504020550 | 50 | 325 | 4.3 | 8.7 | 0.00 | 0.00 | 0.00 | 53 | 1018.5 |
| 20260504020339 | 50 | 329 | 4.3 | 7.0 | 0.00 | 0.00 | 0.00 | 53 | 1018.5 |
| 20260504020202 | 50 | 339 | 4.3 | 8.7 | 0.00 | 0.00 | 0.00 | 53 | 1018.5 |
| 20260504015910 | 50 | 347 | 4.3 | 8.7 | 0.00 | 0.00 | 0.00 | 53 | 1018.5 |
| 20260504015711 | 50 | 347 | 4.3 | 8.7 | 0.00 | 0.00 | 0.00 | 53 | 1018.5 |
| 20260504015516 | 50 | 344 | 5.2 | 10.4 | 0.00 | 0.00 | 0.00 | 52 | 1018.5 |
| 20260504015316 | 50 | 328 | 5.2 | 10.4 | 0.00 | 0.00 | 0.00 | 52 | 1018.5 |
| 20260504015117 | 50 | 339 | 5.2 | 10.4 | 0.00 | 0.00 | 0.00 | 52 | 1018.5 |
| 20260504014918 | 50 | 299 | 5.2 | 10.4 | 0.00 | 0.00 | 0.00 | 52 | 1018.5 |
| 20260504014715 | 50 | 332 | 5.2 | 10.4 | 0.00 | 0.00 | 0.00 | 52 | 1018.5 |
| 20260504014521 | 50 | 339 | 5.2 | 9.6 | 0.00 | 0.00 | 0.00 | 53 | 1018.5 |
| 20260504014312 | 50 | 309 | 4.3 | 7.8 | 0.00 | 0.00 | 0.00 | 53 | 1018.3 |
| 20260504014113 | 50 | 342 | 4.3 | 7.0 | 0.00 | 0.00 | 0.00 | 53 | 1018.3 |
| 20260504013909 | 50 | 347 | 4.3 | 8.7 | 0.00 | 0.00 | 0.00 | 52 | 1018.3 |
| 20260504013713 | 50 | 349 | 4.3 | 8.7 | 0.00 | 0.00 | 0.00 | 52 | 1018.3 |
| 20260504013518 | 50 | 304 | 5.2 | 9.6 | 0.00 | 0.00 | 0.00 | 52 | 1018.3 |
| 20260504013304 | 50 | 313 | 5.2 | 9.6 | 0.00 | 0.00 | 0.00 | 52 | 1018.3 |
| 20260504013109 | 50 | 316 | 5.2 | 9.6 | 0.00 | 0.00 | 0.00 | 52 | 1018.3 |
| 20260504012909 | 50 | 333 | 5.2 | 9.6 | 0.00 | 0.00 | 0.00 | 53 | 1018.4 |
| 20260504012704 | 50 | 335 | 5.2 | 9.6 | 0.00 | 0.00 | 0.00 | 54 | 1018.4 |
| 20260504012510 | 49 | 323 | 4.3 | 7.0 | 0.00 | 0.00 | 0.00 | 54 | 1018.4 |
| 20260504012306 | 49 | 357 | 4.3 | 7.0 | 0.00 | 0.00 | 0.00 | 54 | 1018.4 |
| 20260504012109 | 49 | 323 | 3.5 | 7.0 | 0.00 | 0.00 | 0.00 | 54 | 1018.4 |
| 20260504011859 | 49 | 326 | 3.5 | 7.0 | 0.00 | 0.00 | 0.00 | 54 | 1018.4 |
| 20260504011702 | 49 | 326 | 3.5 | 5.2 | 0.00 | 0.00 | 0.00 | 54 | 1018.4 |
| 20260504011527 | 49 | 298 | 3.5 | 5.2 | 0.00 | 0.00 | 0.00 | 54 | 1018.4 |
| 20260504011337 | 50 | 330 | 2.6 | 5.2 | 0.00 | 0.00 | 0.00 | 54 | 1018.5 |
| 20260504011208 | 50 | 320 | 3.5 | 6.1 | 0.00 | 0.00 | 0.00 | 53 | 1018.5 |
| 20260504010906 | 50 | 344 | 3.5 | 6.1 | 0.00 | 0.00 | 0.00 | 53 | 1018.5 |
| 20260504010707 | 50 | 308 | 3.5 | 6.1 | 0.00 | 0.00 | 0.00 | 53 | 1018.5 |
| 20260504010516 | 50 | 319 | 3.5 | 6.1 | 0.00 | 0.00 | 0.00 | 53 | 1018.5 |
| 20260504010301 | 50 | 311 | 3.5 | 6.1 | 0.00 | 0.00 | 0.00 | 54 | 1018.5 |
| 20260504010054 | 50 | 356 | 3.5 | 6.1 | 0.00 | 0.00 | 0.00 | 54 | 1018.5 |
| 20260504005854 | 50 | 322 | 3.5 | 6.1 | 0.00 | 0.00 | 0.00 | 54 | 1018.4 |
| 20260504005656 | 50 | 313 | 2.6 | 6.1 | 0.00 | 0.00 | 0.00 | 53 | 1018.4 |
| 20260504005313 | 51 | 309 | 2.6 | 5.2 | 0.00 | 0.00 | 0.00 | 52 | 1018.4 |
| 20260504005146 | 51 | 291 | 1.7 | 5.2 | 0.00 | 0.00 | 0.00 | 52 | 1018.4 |
| 20260504004849 | 51 | 312 | 1.7 | 5.2 | 0.00 | 0.00 | 0.00 | 51 | 1018.4 |
| 20260504004651 | 52 | 288 | 1.7 | 5.2 | 0.00 | 0.00 | 0.00 | 50 | 1018.4 |
| 20260504004250 | 52 | 320 | 2.6 | 7.0 | 0.00 | 0.00 | 0.00 | 49 | 1018.3 |
| 20260504004103 | 52 | 353 | 3.5 | 10.4 | 0.00 | 0.00 | 0.00 | 49 | 1018.3 |
| 20260504003850 | 52 | 357 | 4.3 | 10.4 | 0.00 | 0.00 | 0.00 | 49 | 1018.3 |
| 20260504003659 | 52 | 336 | 5.2 | 10.4 | 0.00 | 0.00 | 0.00 | 49 | 1018.3 |
| 20260504003508 | 52 | 359 | 5.2 | 10.4 | 0.00 | 0.00 | 0.00 | 49 | 1018.3 |
| 20260504003255 | 52 | 8 | 5.2 | 10.4 | 0.00 | 0.00 | 0.00 | 50 | 1018.3 |
| 20260504003051 | 52 | 306 | 4.3 | 9.6 | 0.00 | 0.00 | 0.00 | 51 | 1018.3 |
| 20260504002852 | 51 | 350 | 4.3 | 9.6 | 0.00 | 0.00 | 0.00 | 52 | 1018.2 |
| 20260504002650 | 51 | 359 | 3.5 | 9.6 | 0.00 | 0.00 | 0.00 | 52 | 1018.2 |
| 20260504002242 | 51 | 342 | 3.5 | 8.7 | 0.00 | 0.00 | 0.00 | 53 | 1018.2 |
| 20260504002045 | 51 | 357 | 3.5 | 8.7 | 0.00 | 0.00 | 0.00 | 53 | 1018.2 |
| 20260504001839 | 51 | 359 | 4.3 | 8.7 | 0.00 | 0.00 | 0.00 | 54 | 1018.2 |
| 20260504001639 | 51 | 302 | 4.3 | 8.7 | 0.00 | 0.00 | 0.00 | 54 | 1018.2 |
| 20260504001233 | 51 | 357 | 4.3 | 8.7 | 0.00 | 0.00 | 0.00 | 54 | 1018.1 |
| 20260504001047 | 51 | 359 | 4.3 | 8.7 | 0.00 | 0.00 | 0.00 | 54 | 1018.1 |
| 20260504000835 | 51 | 352 | 4.3 | 7.0 | 0.00 | 0.00 | 0.00 | 54 | 1018.1 |
| 20260504000635 | 51 | 357 | 4.3 | 6.1 | 0.00 | 0.00 | 0.00 | 54 | 1018.1 |
| 20260503235947 | 51 | 359 | 3.5 | 8.7 | 0.00 | 0.00 | 0.00 | 54 | 1018.1 |
| 20260503235746 | 51 | 359 | 3.5 | 8.7 | 0.00 | 0.00 | 0.00 | 55 | 1018.0 |
| 20260503235544 | 51 | 359 | 3.5 | 7.0 | 0.00 | 0.00 | 0.00 | 55 | 1018.0 |
| 20260503235349 | 51 | 278 | 3.5 | 7.0 | 0.00 | 0.00 | 0.00 | 55 | 1018.0 |
| 20260503235145 | 51 | 356 | 3.5 | 6.1 | 0.00 | 0.00 | 0.00 | 55 | 1018.0 |
| 20260503234944 | 51 | 356 | 3.5 | 6.1 | 0.00 | 0.00 | 0.00 | 56 | 1018.0 |
| 20260503234744 | 51 | 357 | 3.5 | 7.8 | 0.00 | 0.00 | 0.00 | 56 | 1018.0 |
| 20260503234543 | 51 | 357 | 4.3 | 7.8 | 0.00 | 0.00 | 0.00 | 56 | 1018.0 |
| 20260503234347 | 51 | 357 | 4.3 | 7.8 | 0.00 | 0.00 | 0.00 | 56 | 1018.0 |
| 20260503234150 | 51 | 357 | 4.3 | 7.8 | 0.00 | 0.00 | 0.00 | 56 | 1018.0 |
| 20260503233951 | 51 | 357 | 3.5 | 7.8 | 0.00 | 0.00 | 0.00 | 56 | 1018.0 |
| 20260503233759 | 51 | 357 | 4.3 | 7.0 | 0.00 | 0.00 | 0.00 | 57 | 1018.0 |
| 20260503233552 | 51 | 357 | 3.5 | 7.0 | 0.00 | 0.00 | 0.00 | 57 | 1018.0 |
| 20260503233348 | 51 | 356 | 3.5 | 7.0 | 0.00 | 0.00 | 0.00 | 57 | 1018.0 |
| 20260503233152 | 51 | 357 | 3.5 | 7.0 | 0.00 | 0.00 | 0.00 | 58 | 1018.0 |
| 20260503232947 | 51 | 357 | 3.5 | 7.0 | 0.00 | 0.00 | 0.00 | 58 | 1018.0 |
| 20260503232546 | 50 | 357 | 2.6 | 6.1 | 0.00 | 0.00 | 0.00 | 59 | 1018.0 |
| 20260503232345 | 50 | 357 | 3.5 | 6.1 | 0.00 | 0.00 | 0.00 | 60 | 1018.0 |
| 20260503232135 | 50 | 357 | 2.6 | 6.1 | 0.00 | 0.00 | 0.00 | 61 | 1018.0 |
| 20260503231933 | 50 | 357 | 2.6 | 6.1 | 0.00 | 0.00 | 0.00 | 62 | 1018.0 |
| 20260503231735 | 50 | 357 | 2.6 | 6.1 | 0.00 | 0.00 | 0.00 | 62 | 1018.0 |
| 20260503231534 | 50 | 357 | 3.5 | 6.1 | 0.00 | 0.00 | 0.00 | 62 | 1018.0 |
| 20260503231333 | 50 | 359 | 3.5 | 7.0 | 0.00 | 0.00 | 0.00 | 63 | 1018.0 |
| 20260503231131 | 50 | 357 | 3.5 | 7.0 | 0.00 | 0.00 | 0.00 | 63 | 1018.0 |
| 20260503230927 | 50 | 359 | 4.3 | 7.0 | 0.00 | 0.00 | 0.00 | 64 | 1018.0 |
| 20260503230726 | 50 | 357 | 3.5 | 7.0 | 0.00 | 0.00 | 0.00 | 64 | 1018.0 |
| 20260503230517 | 49 | 357 | 3.5 | 7.0 | 0.00 | 0.00 | 0.00 | 64 | 1018.0 |
| 20260503230321 | 49 | 359 | 3.5 | 7.0 | 0.00 | 0.00 | 0.00 | 64 | 1018.0 |
| 20260503230118 | 49 | 357 | 3.5 | 7.0 | 0.00 | 0.00 | 0.00 | 64 | 1018.0 |
| 20260503225913 | 50 | 357 | 2.6 | 6.1 | 0.00 | 0.00 | 0.00 | 64 | 1018.0 |
| 20260503225705 | 50 | 357 | 2.6 | 6.1 | 0.00 | 0.00 | 0.00 | 64 | 1017.9 |
| 20260503225506 | 50 | 357 | 2.6 | 5.2 | 0.00 | 0.00 | 0.00 | 63 | 1017.9 |
| 20260503225317 | 50 | 357 | 2.6 | 5.2 | 0.00 | 0.00 | 0.00 | 63 | 1017.9 |
| 20260503225106 | 50 | 359 | 2.6 | 5.2 | 0.00 | 0.00 | 0.00 | 62 | 1017.9 |
| 20260503224904 | 50 | 357 | 2.6 | 7.0 | 0.00 | 0.00 | 0.00 | 62 | 1017.9 |
| 20260503224659 | 51 | 357 | 3.5 | 7.0 | 0.00 | 0.00 | 0.00 | 61 | 1017.9 |
| 20260503224459 | 51 | 357 | 2.6 | 7.0 | 0.00 | 0.00 | 0.00 | 60 | 1017.9 |
| 20260503224300 | 51 | 357 | 2.6 | 7.0 | 0.00 | 0.00 | 0.00 | 60 | 1017.7 |
| 20260503224051 | 51 | 357 | 2.6 | 7.0 | 0.00 | 0.00 | 0.00 | 60 | 1017.7 |
| 20260503223851 | 51 | 356 | 1.7 | 6.1 | 0.00 | 0.00 | 0.00 | 60 | 1017.7 |
| 20260503223649 | 52 | 357 | 1.7 | 5.2 | 0.00 | 0.00 | 0.00 | 60 | 1017.7 |
| 20260503223451 | 52 | 357 | 1.7 | 5.2 | 0.00 | 0.00 | 0.00 | 60 | 1017.7 |
| 20260503223049 | 52 | 357 | 1.7 | 5.2 | 0.00 | 0.00 | 0.00 | 60 | 1017.7 |
| 20260503222926 | 52 | 356 | 1.7 | 5.2 | 0.00 | 0.00 | 0.00 | 60 | 1017.7 |
| 20260503222637 | 52 | 356 | 1.7 | 5.2 | 0.00 | 0.00 | 0.00 | 59 | 1017.7 |
| 20260503222436 | 52 | 356 | 1.7 | 5.2 | 0.00 | 0.00 | 0.00 | 59 | 1017.7 |
| 20260503222034 | 52 | 357 | 1.7 | 5.2 | 0.00 | 0.00 | 0.00 | 59 | 1017.7 |
| 20260503221843 | 52 | 356 | 1.7 | 5.2 | 0.00 | 0.00 | 0.00 | 60 | 1017.7 |
| 20260503221647 | 52 | 357 | 1.7 | 5.2 | 0.00 | 0.00 | 0.00 | 60 | 1017.7 |
| 20260503221517 | 52 | 357 | 1.7 | 5.2 | 0.00 | 0.00 | 0.00 | 60 | 1017.7 |
| 20260503221351 | 52 | 357 | 1.7 | 5.2 | 0.00 | 0.00 | 0.00 | 60 | 1017.8 |
| 20260503221037 | 52 | 359 | 1.7 | 4.3 | 0.00 | 0.00 | 0.00 | 60 | 1017.8 |
| 20260503220837 | 52 | 357 | 0.9 | 4.3 | 0.00 | 0.00 | 0.00 | 60 | 1017.8 |
| 20260503220635 | 52 | 357 | 0.9 | 4.3 | 0.00 | 0.00 | 0.00 | 60 | 1017.8 |
| 20260503220428 | 52 | 356 | 0.9 | 4.3 | 0.00 | 0.00 | 0.00 | 60 | 1017.8 |
| 20260503220241 | 52 | 356 | 0.9 | 4.3 | 0.00 | 0.00 | 0.00 | 61 | 1017.8 |
| 20260503220048 | 52 | 356 | 0.9 | 4.3 | 0.00 | 0.00 | 0.00 | 61 | 1017.8 |
| 20260503215907 | 52 | 357 | 0.9 | 4.3 | 0.00 | 0.00 | 0.00 | 62 | 1017.8 |
| 20260503215606 | 52 | 356 | 0.9 | 4.3 | 0.00 | 0.00 | 0.00 | 64 | 1017.8 |
| 20260503215404 | 52 | 357 | 0.9 | 2.6 | 0.00 | 0.00 | 0.00 | 64 | 1017.8 |
| 20260503215202 | 52 | 356 | 0.0 | 2.6 | 0.00 | 0.00 | 0.00 | 66 | 1017.8 |
| 20260503214958 | 52 | 357 | 0.0 | 2.6 | 0.00 | 0.00 | 0.00 | 67 | 1017.8 |
| 20260503214754 | 52 | 357 | 0.9 | 4.3 | 0.00 | 0.00 | 0.00 | 69 | 1017.8 |
| 20260503214538 | 52 | 357 | 0.9 | 4.3 | 0.00 | 0.00 | 0.00 | 70 | 1017.8 |
| 20260503214347 | 52 | 357 | 0.9 | 4.3 | 0.00 | 0.00 | 0.00 | 71 | 1017.7 |
| 20260503214124 | 52 | 357 | 1.7 | 4.3 | 0.00 | 0.00 | 0.00 | 72 | 1017.7 |
| 20260503213926 | 52 | 357 | 1.7 | 4.3 | 0.00 | 0.00 | 0.00 | 72 | 1017.7 |
| 20260503213716 | 52 | 357 | 1.7 | 4.3 | 0.00 | 0.00 | 0.00 | 72 | 1017.7 |
| 20260503213507 | 52 | 356 | 1.7 | 4.3 | 0.00 | 0.00 | 0.00 | 73 | 1017.7 |
| 20260503213309 | 52 | 356 | 0.9 | 4.3 | 0.00 | 0.00 | 0.00 | 73 | 1017.7 |
| 20260503213110 | 52 | 356 | 0.9 | 4.3 | 0.00 | 0.00 | 0.00 | 73 | 1017.7 |
| 20260503212917 | 52 | 356 | 0.9 | 3.5 | 0.00 | 0.00 | 0.00 | 74 | 1017.8 |
| 20260503212731 | 53 | 357 | 0.0 | 2.6 | 0.00 | 0.00 | 0.00 | 74 | 1017.8 |
| 20260503212513 | 53 | 357 | 0.0 | 1.7 | 0.00 | 0.00 | 0.00 | 75 | 1017.8 |
| 20260503212325 | 53 | 357 | 0.0 | 1.7 | 0.00 | 0.00 | 0.00 | 75 | 1017.8 |
| 20260503212110 | 53 | 357 | 0.0 | 0.9 | 0.00 | 0.00 | 0.00 | 75 | 1017.8 |
| 20260503211910 | 53 | 357 | 0.0 | 0.9 | 0.00 | 0.00 | 0.00 | 75 | 1017.8 |
| 20260503211505 | 54 | 357 | 0.0 | 0.9 | 0.00 | 0.00 | 0.00 | 76 | 1017.8 |
| 20260503211302 | 54 | 357 | 0.0 | 0.9 | 0.00 | 0.00 | 0.00 | 76 | 1017.6 |
| 20260503211101 | 55 | 357 | 0.0 | 2.6 | 0.00 | 0.00 | 0.00 | 76 | 1017.6 |
| 20260503210913 | 55 | 357 | 0.9 | 5.2 | 0.00 | 0.00 | 0.00 | 76 | 1017.6 |
| 20260503210502 | 55 | 357 | 1.7 | 5.2 | 0.00 | 0.00 | 0.00 | 76 | 1017.7 |
| 20260503210312 | 56 | 353 | 1.7 | 5.2 | 0.00 | 0.00 | 0.00 | 76 | 1017.7 |
| 20260503210124 | 56 | 329 | 1.7 | 5.2 | 0.00 | 0.00 | 0.00 | 76 | 1017.7 |
| 20260503205934 | 57 | 356 | 1.7 | 5.2 | 0.00 | 0.00 | 0.00 | 77 | 1017.5 |
| 20260503205645 | 57 | 357 | 1.7 | 7.0 | 0.00 | 0.00 | 0.00 | 77 | 1017.5 |
| 20260503205502 | 57 | 359 | 0.9 | 7.0 | 0.00 | 0.00 | 0.00 | 77 | 1017.5 |
| 20260503205327 | 57 | 342 | 0.9 | 7.0 | 0.00 | 0.00 | 0.00 | 77 | 1017.5 |
| 20260503205033 | 57 | 128 | 0.9 | 7.0 | 0.00 | 0.00 | 0.00 | 77 | 1017.5 |
| 20260503204855 | 57 | 48 | 0.0 | 5.2 | 0.00 | 0.00 | 0.00 | 76 | 1017.5 |
| 20260503204725 | 57 | 6 | 0.0 | 2.6 | 0.00 | 0.00 | 0.00 | 76 | 1017.5 |
| 20260503204412 | 57 | 72 | 0.0 | 1.7 | 0.00 | 0.00 | 0.00 | 76 | 1017.5 |
| 20260503204217 | 57 | 299 | 0.0 | 1.7 | 0.00 | 0.00 | 0.00 | 75 | 1017.5 |
| 20260503204029 | 57 | 291 | 0.0 | 2.6 | 0.00 | 0.00 | 0.00 | 75 | 1017.5 |
| 20260503203856 | 57 | 56 | 0.0 | 4.3 | 0.00 | 0.00 | 0.00 | 75 | 1017.5 |
| 20260503203608 | 57 | 305 | 0.0 | 4.3 | 0.00 | 0.00 | 0.00 | 75 | 1017.5 |
| 20260503203405 | 57 | 76 | 0.9 | 4.3 | 0.00 | 0.00 | 0.00 | 74 | 1017.5 |
| 20260503203209 | 57 | 54 | 0.9 | 5.2 | 0.00 | 0.00 | 0.00 | 73 | 1017.5 |
| 20260503203007 | 57 | 359 | 0.9 | 5.2 | 0.00 | 0.00 | 0.00 | 73 | 1017.5 |
| 20260503202805 | 57 | 328 | 0.9 | 8.7 | 0.00 | 0.00 | 0.00 | 73 | 1017.4 |
| 20260503202404 | 57 | 121 | 1.7 | 8.7 | 0.00 | 0.00 | 0.00 | 72 | 1017.4 |
| 20260503202216 | 57 | 164 | 1.7 | 8.7 | 0.00 | 0.00 | 0.00 | 72 | 1017.4 |
| 20260503202006 | 58 | 213 | 1.7 | 8.7 | 0.00 | 0.00 | 0.00 | 72 | 1017.4 |
| 20260503201825 | 58 | 202 | 1.7 | 7.0 | 0.00 | 0.00 | 0.00 | 71 | 1017.4 |
| 20260503201640 | 58 | 229 | 2.6 | 7.0 | 0.00 | 0.00 | 0.00 | 71 | 1017.4 |
| 20260503201505 | 58 | 136 | 2.6 | 7.0 | 0.00 | 0.00 | 0.00 | 71 | 1017.4 |
| 20260503201218 | 58 | 226 | 3.5 | 9.6 | 0.00 | 0.00 | 0.00 | 70 | 1017.4 |
| 20260503201031 | 58 | 226 | 3.5 | 9.6 | 0.00 | 0.00 | 0.00 | 70 | 1017.4 |
| 20260503200901 | 58 | 168 | 2.6 | 9.6 | 0.00 | 0.00 | 0.00 | 69 | 1017.4 |
| 20260503200712 | 58 | 206 | 1.7 | 9.6 | 0.00 | 0.00 | 0.00 | 68 | 1017.4 |
| 20260503200355 | 58 | 175 | 0.9 | 9.6 | 0.00 | 0.00 | 0.00 | 68 | 1017.4 |
| 20260503200207 | 58 | 136 | 0.9 | 9.6 | 0.00 | 0.00 | 0.00 | 66 | 1017.4 |
| 20260503195956 | 58 | 148 | 0.0 | 6.1 | 0.00 | 0.00 | 0.00 | 65 | 1017.4 |
| 20260503195753 | 58 | 206 | 0.0 | 2.6 | 0.00 | 0.00 | 0.00 | 63 | 1017.3 |
| 20260503195421 | 57 | 247 | 0.9 | 4.3 | 0.00 | 0.00 | 0.00 | 61 | 1017.3 |
| 20260503195255 | 57 | 209 | 0.9 | 4.3 | 0.00 | 0.00 | 0.00 | 59 | 1017.3 |
| 20260503194951 | 57 | 137 | 0.9 | 4.3 | 0.00 | 0.00 | 0.00 | 58 | 1017.3 |
| 20260503194754 | 57 | 64 | 0.9 | 4.3 | 0.00 | 0.00 | 0.00 | 58 | 1017.3 |
| 20260503194548 | 56 | 121 | 0.9 | 4.3 | 0.00 | 0.00 | 0.00 | 57 | 1017.3 |
| 20260503194342 | 56 | 133 | 0.9 | 4.3 | 0.00 | 0.00 | 0.00 | 53 | 1017.0 |
| 20260503194145 | 55 | 171 | 0.9 | 4.3 | 0.00 | 0.00 | 0.00 | 52 | 1017.0 |
| 20260503193941 | 55 | 73 | 1.7 | 4.3 | 0.00 | 0.00 | 0.00 | 47 | 1016.9 |
| 20260503193735 | 55 | 219 | 1.7 | 4.3 | 0.00 | 0.00 | 0.00 | 46 | 1016.9 |
| 20260503193536 | 55 | 344 | 1.7 | 4.3 | 0.00 | 0.00 | 0.00 | 46 | 1016.9 |
| 20260503193336 | 55 | 343 | 1.7 | 4.3 | 0.00 | 0.00 | 0.00 | 46 | 1016.9 |
| 20260503193138 | 55 | 316 | 1.7 | 4.3 | 0.00 | 0.00 | 0.00 | 46 | 1016.9 |
| 20260503192938 | 55 | 333 | 1.7 | 4.3 | 0.00 | 0.00 | 0.00 | 46 | 1016.9 |
| 20260503192745 | 55 | 337 | 1.7 | 3.5 | 0.00 | 0.00 | 0.00 | 46 | 1016.9 |
| 20260503192544 | 55 | 353 | 1.7 | 4.3 | 0.00 | 0.00 | 0.00 | 46 | 1016.9 |
| 20260503192344 | 55 | 344 | 1.7 | 4.3 | 0.00 | 0.00 | 0.00 | 46 | 1016.9 |
| 20260503192144 | 55 | 330 | 1.7 | 6.1 | 0.00 | 0.00 | 0.00 | 46 | 1016.9 |
| 20260503191940 | 55 | 340 | 2.6 | 6.1 | 0.00 | 0.00 | 0.00 | 46 | 1016.9 |
| 20260503191737 | 55 | 343 | 2.6 | 6.1 | 0.00 | 0.00 | 0.00 | 46 | 1016.9 |
| 20260503191537 | 55 | 340 | 2.6 | 6.1 | 0.00 | 0.00 | 0.00 | 46 | 1016.9 |
| 20260503191330 | 55 | 342 | 2.6 | 6.1 | 0.00 | 0.00 | 0.00 | 46 | 1016.9 |
| 20260503191141 | 55 | 335 | 2.6 | 5.2 | 0.00 | 0.00 | 0.00 | 46 | 1016.9 |
| 20260503190944 | 55 | 330 | 1.7 | 5.2 | 0.00 | 0.00 | 0.00 | 47 | 1016.9 |
| 20260503190744 | 55 | 342 | 1.7 | 5.2 | 0.00 | 0.00 | 0.00 | 47 | 1016.9 |
| 20260503190542 | 55 | 326 | 0.9 | 4.3 | 0.00 | 0.00 | 0.00 | 47 | 1016.9 |
| 20260503190357 | 55 | 336 | 0.9 | 3.5 | 0.00 | 0.00 | 0.00 | 48 | 1016.8 |
| 20260503190222 | 55 | 344 | 0.9 | 2.6 | 0.00 | 0.00 | 0.00 | 48 | 1016.8 |
| 20260503185926 | 55 | 329 | 0.9 | 2.6 | 0.00 | 0.00 | 0.00 | 48 | 1016.8 |
| 20260503185736 | 55 | 333 | 0.9 | 2.6 | 0.00 | 0.00 | 0.00 | 49 | 1016.6 |
| 20260503185546 | 55 | 325 | 0.9 | 4.3 | 0.00 | 0.00 | 0.00 | 49 | 1016.6 |
| 20260503185408 | 55 | 325 | 0.9 | 4.3 | 0.00 | 0.00 | 0.00 | 50 | 1016.7 |
| 20260503185238 | 55 | 333 | 0.9 | 4.3 | 0.00 | 0.00 | 0.00 | 50 | 1016.7 |
| 20260503184945 | 55 | 332 | 0.9 | 4.3 | 0.00 | 0.00 | 0.00 | 50 | 1016.7 |
| 20260503184815 | 55 | 328 | 1.7 | 4.3 | 0.00 | 0.00 | 0.00 | 50 | 1016.7 |
| 20260503184534 | 55 | 319 | 1.7 | 2.6 | 0.00 | 0.00 | 0.00 | 51 | 1016.7 |
| 20260503184332 | 55 | 323 | 0.9 | 2.6 | 0.00 | 0.00 | 0.00 | 51 | 1016.5 |
| 20260503184140 | 55 | 318 | 0.9 | 2.6 | 0.00 | 0.00 | 0.00 | 51 | 1016.5 |
| 20260503183936 | 55 | 322 | 0.9 | 2.6 | 0.00 | 0.00 | 0.00 | 50 | 1016.5 |
| 20260503183731 | 55 | 330 | 0.9 | 4.3 | 0.00 | 0.00 | 0.00 | 50 | 1016.5 |
| 20260503183531 | 55 | 323 | 0.9 | 4.3 | 0.00 | 0.00 | 0.00 | 50 | 1016.5 |
| 20260503183328 | 55 | 313 | 0.9 | 4.3 | 0.00 | 0.00 | 0.00 | 50 | 1016.5 |
| 20260503183135 | 56 | 322 | 0.9 | 4.3 | 0.00 | 0.00 | 0.00 | 50 | 1016.5 |
| 20260503182930 | 56 | 320 | 0.9 | 4.3 | 0.00 | 0.00 | 0.00 | 49 | 1016.5 |
| 20260503182731 | 56 | 328 | 0.9 | 4.3 | 0.00 | 0.00 | 0.00 | 49 | 1016.5 |
| 20260503182528 | 56 | 326 | 0.9 | 4.3 | 0.00 | 0.00 | 0.00 | 49 | 1016.5 |
| 20260503182327 | 56 | 319 | 0.9 | 4.3 | 0.00 | 0.00 | 0.00 | 49 | 1016.5 |
| 20260503182142 | 56 | 315 | 0.9 | 4.3 | 0.00 | 0.00 | 0.00 | 49 | 1016.5 |
| 20260503181921 | 56 | 332 | 0.9 | 4.3 | 0.00 | 0.00 | 0.00 | 49 | 1016.5 |
| 20260503181721 | 56 | 346 | 0.9 | 2.6 | 0.00 | 0.00 | 0.00 | 49 | 1016.5 |
| 20260503181522 | 56 | 349 | 0.9 | 2.6 | 0.00 | 0.00 | 0.00 | 50 | 1016.5 |
| 20260503181338 | 56 | 357 | 0.9 | 2.6 | 0.00 | 0.00 | 0.00 | 50 | 1016.3 |
| 20260503181208 | 56 | 357 | 0.9 | 3.5 | 0.00 | 0.00 | 0.00 | 50 | 1016.3 |
| 20260503180854 | 56 | 357 | 0.9 | 3.5 | 0.00 | 0.00 | 0.00 | 49 | 1016.3 |
| 20260503180652 | 56 | 359 | 0.9 | 3.5 | 0.00 | 0.00 | 0.00 | 49 | 1016.3 |
| 20260503180450 | 57 | 357 | 0.9 | 3.5 | 0.00 | 0.00 | 0.00 | 49 | 1016.3 |
| 20260503180241 | 57 | 359 | 0.9 | 3.5 | 0.00 | 0.00 | 0.00 | 48 | 1016.3 |
| 20260503175845 | 57 | 357 | 0.0 | 2.6 | 0.00 | 0.00 | 0.00 | 47 | 1016.1 |
| 20260503175636 | 57 | 277 | 0.0 | 2.6 | 0.00 | 0.00 | 0.00 | 46 | 1016.1 |
| 20260503175431 | 57 | 301 | 0.0 | 1.7 | 0.00 | 0.00 | 0.00 | 46 | 1016.1 |
| 20260503175230 | 57 | 287 | 0.0 | 1.7 | 0.00 | 0.00 | 0.00 | 46 | 1016.1 |
| 20260503175030 | 57 | 296 | 0.0 | 1.7 | 0.00 | 0.00 | 0.00 | 46 | 1016.1 |
| 20260503174815 | 57 | 295 | 0.9 | 1.7 | 0.00 | 0.00 | 0.00 | 46 | 1016.1 |
| 20260503174617 | 57 | 325 | 0.9 | 2.6 | 0.00 | 0.00 | 0.00 | 47 | 1016.1 |
| 20260503174213 | 58 | 295 | 0.9 | 2.6 | 0.00 | 0.00 | 0.00 | 46 | 1016.0 |
| 20260503173950 | 58 | 296 | 0.9 | 3.5 | 0.00 | 0.00 | 0.00 | 46 | 1016.0 |
| 20260503173757 | 58 | 289 | 0.9 | 3.5 | 0.00 | 0.00 | 0.00 | 46 | 1016.0 |
| 20260503173601 | 58 | 291 | 0.9 | 3.5 | 0.00 | 0.00 | 0.00 | 46 | 1016.0 |
| 20260503173354 | 58 | 278 | 0.9 | 3.5 | 0.00 | 0.00 | 0.00 | 46 | 1016.0 |
| 20260503173146 | 58 | 337 | 0.9 | 3.5 | 0.00 | 0.00 | 0.00 | 46 | 1016.0 |
| 20260503172944 | 59 | 278 | 0.9 | 4.3 | 0.00 | 0.00 | 0.00 | 46 | 1016.0 |
| 20260503172749 | 59 | 270 | 0.9 | 4.3 | 0.00 | 0.00 | 0.00 | 45 | 1015.9 |
| 20260503172346 | 59 | 287 | 0.9 | 4.3 | 0.00 | 0.00 | 0.00 | 44 | 1015.9 |
| 20260503172148 | 59 | 287 | 0.9 | 4.3 | 0.00 | 0.00 | 0.00 | 45 | 1015.9 |
| 20260503171942 | 60 | 281 | 0.9 | 1.7 | 0.00 | 0.00 | 0.00 | 44 | 1015.9 |
| 20260503171740 | 60 | 304 | 0.9 | 5.2 | 0.00 | 0.00 | 0.00 | 44 | 1015.9 |
| 20260503171334 | 60 | 285 | 0.9 | 5.2 | 0.00 | 0.00 | 0.00 | 43 | 1015.8 |
| 20260503171132 | 60 | 294 | 0.9 | 5.2 | 0.00 | 0.00 | 0.00 | 43 | 1015.8 |
| 20260503170904 | 60 | 287 | 0.9 | 3.5 | 0.00 | 0.00 | 0.00 | 43 | 1015.8 |
| 20260503170720 | 61 | 282 | 0.9 | 2.6 | 0.00 | 0.00 | 0.00 | 42 | 1015.8 |
| 20260503170516 | 61 | 352 | 0.9 | 3.5 | 0.00 | 0.00 | 0.00 | 42 | 1015.8 |
| 20260503170317 | 61 | 359 | 0.9 | 3.5 | 0.00 | 0.00 | 0.00 | 42 | 1015.8 |
| 20260503170124 | 62 | 344 | 0.9 | 3.5 | 0.00 | 0.00 | 0.00 | 41 | 1015.8 |
| 20260503160131 | 64 | 311 | 1.7 | 7.0 | 0.00 | 0.00 | 0.00 | 34 | 1015.5 |
| 20260503150938 | 64 | 100 | 0.9 | 2.6 | 0.00 | 0.00 | 0.00 | 35 | 1015.9 |
| 20260503150716 | 63 | 103 | 0.9 | 2.6 | 0.00 | 0.00 | 0.00 | 35 | 1015.9 |
| 20260503150526 | 63 | 104 | 0.9 | 2.6 | 0.00 | 0.00 | 0.00 | 34 | 1015.9 |
| 20260503150328 | 63 | 113 | 0.9 | 2.6 | 0.00 | 0.00 | 0.00 | 33 | 1015.9 |
| 20260503131250 | 62 | 107 | 1.7 | 5.2 | 0.00 | 0.00 | 0.00 | 40 | 1016.7 |
| 20260503131106 | 62 | 104 | 1.7 | 5.2 | 0.00 | 0.00 | 0.00 | 39 | 1016.7 |
| 20260503130929 | 62 | 92 | 1.7 | 5.2 | 0.00 | 0.00 | 0.00 | 39 | 1016.7 |
| 20260503130808 | 62 | 110 | 1.7 | 5.2 | 0.00 | 0.00 | 0.00 | 38 | 1016.7 |
| 20260503130520 | 62 | 119 | 1.7 | 3.5 | 0.00 | 0.00 | 0.00 | 37 | 1016.7 |
| 20260503130330 | 62 | 120 | 0.9 | 2.6 | 0.00 | 0.00 | 0.00 | 36 | 1016.8 |
| 20260503120112 | 63 | 106 | 0.0 | 2.6 | 0.00 | 0.00 | 0.00 | 40 | 1017.4 |
| 20260503110635 | 60 | 184 | 0.9 | 2.6 | 0.00 | 0.00 | 0.00 | 45 | 1017.9 |
| 20260503110443 | 60 | 196 | 0.9 | 2.6 | 0.00 | 0.00 | 0.00 | 44 | 1017.9 |
| 20260503110307 | 60 | 198 | 0.9 | 4.3 | 0.00 | 0.00 | 0.00 | 45 | 1017.9 |
| 20260503110145 | 60 | 154 | 0.9 | 4.3 | 0.00 | 0.00 | 0.00 | 45 | 1017.9 |
| 20260503100147 | 57 | 45 | 1.7 | 5.2 | 0.00 | 0.00 | 0.00 | 50 | 1018.6 |
| 20260503090455 | 56 | 1 | 2.6 | 6.1 | 0.00 | 0.00 | 0.00 | 55 | 1019.0 |
| 20260503090240 | 56 | 330 | 3.5 | 6.1 | 0.00 | 0.00 | 0.00 | 55 | 1019.0 |
| 20260503081636 | 54 | 11 | 3.5 | 6.1 | 0.00 | 0.00 | 0.00 | 61 | 1019.0 |
| 20260503081321 | 54 | 0 | 3.5 | 6.1 | 0.00 | 0.00 | 0.00 | 62 | 1019.0 |
| 20260503081124 | 54 | 34 | 3.5 | 7.0 | 0.00 | 0.00 | 0.00 | 63 | 1019.0 |
| 20260503080844 | 54 | 11 | 3.5 | 7.8 | 0.00 | 0.00 | 0.00 | 64 | 1019.0 |
| 20260503080701 | 54 | 8 | 3.5 | 7.8 | 0.00 | 0.00 | 0.00 | 64 | 1019.0 |
| 20260503080151 | 53 | 28 | 3.5 | 7.8 | 0.00 | 0.00 | 0.00 | 65 | 1019.0 |
| 20260503072849 | 51 | 357 | 5.2 | 12.2 | 0.00 | 0.00 | 0.00 | 73 | 1019.1 |
| 20260503072726 | 50 | 357 | 5.2 | 12.2 | 0.00 | 0.00 | 0.00 | 73 | 1019.1 |
| 20260503072436 | 50 | 356 | 5.2 | 12.2 | 0.00 | 0.00 | 0.00 | 74 | 1019.1 |
| 20260503072257 | 50 | 352 | 5.2 | 12.2 | 0.00 | 0.00 | 0.00 | 75 | 1019.1 |
| 20260503072124 | 50 | 359 | 4.3 | 9.6 | 0.00 | 0.00 | 0.00 | 75 | 1019.1 |
| 20260503071820 | 50 | 356 | 4.3 | 11.3 | 0.00 | 0.00 | 0.00 | 76 | 1019.1 |
| 20260503071655 | 50 | 356 | 4.3 | 11.3 | 0.00 | 0.00 | 0.00 | 76 | 1019.1 |
| 20260503071426 | 50 | 236 | 4.3 | 11.3 | 0.00 | 0.00 | 0.00 | 77 | 1019.0 |
| 20260503071249 | 50 | 256 | 4.3 | 11.3 | 0.00 | 0.00 | 0.00 | 78 | 1019.0 |
| 20260503071043 | 50 | 278 | 4.3 | 11.3 | 0.00 | 0.00 | 0.00 | 78 | 1019.0 |
| 20260503070805 | 50 | 352 | 3.5 | 9.6 | 0.00 | 0.00 | 0.00 | 79 | 1019.0 |
| 20260503070509 | 50 | 272 | 2.6 | 8.7 | 0.00 | 0.00 | 0.00 | 80 | 1019.0 |
| 20260503070303 | 49 | 354 | 2.6 | 8.7 | 0.00 | 0.00 | 0.00 | 80 | 1019.0 |
| 20260503070115 | 49 | 246 | 1.7 | 10.4 | 0.00 | 0.00 | 0.00 | 80 | 1019.0 |
| 20260503060226 | 50 | 272 | 1.7 | 6.1 | 0.00 | 0.00 | 0.00 | 93 | 1018.4 |
| 20260503055028 | 49 | 359 | 0.9 | 4.3 | 0.00 | 0.00 | 0.00 | 94 | 1018.2 |
| 20260503054826 | 49 | 298 | 0.9 | 4.3 | 0.00 | 0.00 | 0.00 | 94 | 1018.2 |
| 20260503054625 | 50 | 301 | 0.9 | 3.5 | 0.00 | 0.00 | 0.00 | 94 | 1018.2 |
| 20260503054427 | 50 | 357 | 0.9 | 3.5 | 0.00 | 0.00 | 0.00 | 95 | 1018.2 |
| 20260503054212 | 49 | 298 | 0.9 | 3.5 | 0.00 | 0.00 | 0.00 | 95 | 1018.0 |
| 20260503054032 | 49 | 294 | 0.9 | 4.3 | 0.00 | 0.00 | 0.00 | 95 | 1018.0 |
| 20260503053830 | 49 | 357 | 0.9 | 4.3 | 0.00 | 0.00 | 0.00 | 95 | 1018.0 |
| 20260503053648 | 49 | 295 | 0.9 | 4.3 | 0.00 | 0.00 | 0.00 | 95 | 1018.0 |
| 20260503053423 | 49 | 356 | 0.9 | 4.3 | 0.00 | 0.00 | 0.00 | 95 | 1018.0 |
| 20260503053243 | 49 | 356 | 0.9 | 4.3 | 0.00 | 0.00 | 0.00 | 95 | 1018.0 |
| 20260503053109 | 49 | 356 | 0.9 | 4.3 | 0.00 | 0.00 | 0.00 | 96 | 1018.0 |
| 20260503052830 | 49 | 354 | 0.9 | 4.3 | 0.00 | 0.00 | 0.00 | 95 | 1017.8 |
| 20260503052604 | 49 | 354 | 0.9 | 4.3 | 0.00 | 0.00 | 0.00 | 95 | 1017.8 |
| 20260503052426 | 49 | 354 | 0.9 | 4.3 | 0.00 | 0.00 | 0.00 | 95 | 1017.8 |
| 20260503052155 | 49 | 353 | 0.0 | 3.5 | 0.00 | 0.00 | 0.00 | 95 | 1017.8 |
| 20260503051955 | 49 | 354 | 0.0 | 1.7 | 0.00 | 0.00 | 0.00 | 96 | 1017.8 |
| 20260503051747 | 49 | 354 | 0.0 | 1.7 | 0.00 | 0.00 | 0.00 | 96 | 1017.8 |
| 20260503051540 | 49 | 354 | 0.0 | 0.0 | 0.00 | 0.00 | 0.00 | 96 | 1017.8 |
| 20260503051347 | 49 | 354 | 0.0 | 0.0 | 0.00 | 0.00 | 0.00 | 96 | 1017.7 |
| 20260503051203 | 49 | 354 | 0.0 | 0.0 | 0.00 | 0.00 | 0.00 | 96 | 1017.7 |
| 20260503051028 | 49 | 354 | 0.0 | 0.0 | 0.00 | 0.00 | 0.00 | 96 | 1017.7 |
| 20260503050728 | 49 | 354 | 0.0 | 0.0 | 0.00 | 0.00 | 0.00 | 95 | 1017.7 |
| 20260503050518 | 48 | 356 | 0.0 | 0.0 | 0.00 | 0.00 | 0.00 | 95 | 1017.7 |
| 20260503050118 | 48 | 353 | 0.0 | 0.0 | 0.00 | 0.00 | 0.00 | 95 | 1017.7 |
| 20260503045904 | 48 | 353 | 0.0 | 0.0 | 0.00 | 0.00 | 0.00 | 95 | 1017.6 |
| 20260503045717 | 48 | 353 | 0.0 | 0.0 | 0.00 | 0.00 | 0.00 | 95 | 1017.6 |
| 20260503045521 | 48 | 353 | 0.0 | 1.7 | 0.00 | 0.00 | 0.00 | 95 | 1017.6 |
| 20260503045108 | 48 | 352 | 0.9 | 2.6 | 0.00 | 0.00 | 0.00 | 95 | 1017.6 |
| 20260503044905 | 48 | 350 | 0.9 | 5.2 | 0.00 | 0.00 | 0.00 | 95 | 1017.6 |
| 20260503044658 | 48 | 354 | 0.9 | 5.2 | 0.00 | 0.00 | 0.00 | 95 | 1017.5 |
| 20260503044443 | 48 | 354 | 1.7 | 5.2 | 0.00 | 0.00 | 0.00 | 95 | 1017.5 |
| 20260503044239 | 48 | 354 | 1.7 | 5.2 | 0.00 | 0.00 | 0.00 | 95 | 1017.4 |
| 20260503044101 | 48 | 354 | 1.7 | 5.2 | 0.00 | 0.00 | 0.00 | 95 | 1017.4 |
| 20260503043915 | 48 | 353 | 1.7 | 5.2 | 0.00 | 0.00 | 0.00 | 94 | 1017.4 |
| 20260503043457 | 48 | 356 | 1.7 | 6.1 | 0.00 | 0.00 | 0.00 | 94 | 1017.4 |
| 20260503043238 | 48 | 347 | 2.6 | 6.1 | 0.00 | 0.00 | 0.00 | 94 | 1017.4 |
| 20260503043041 | 48 | 224 | 2.6 | 6.1 | 0.00 | 0.00 | 0.00 | 94 | 1017.4 |
| 20260503042844 | 48 | 353 | 2.6 | 6.1 | 0.00 | 0.00 | 0.00 | 94 | 1017.4 |
| 20260503042700 | 48 | 354 | 2.6 | 6.1 | 0.00 | 0.00 | 0.00 | 94 | 1017.4 |
| 20260503042507 | 48 | 353 | 2.6 | 6.1 | 0.00 | 0.00 | 0.00 | 94 | 1017.4 |
| 20260503042226 | 48 | 353 | 2.6 | 6.1 | 0.00 | 0.00 | 0.00 | 94 | 1017.4 |
| 20260503042030 | 48 | 352 | 2.6 | 5.2 | 0.00 | 0.00 | 0.00 | 94 | 1017.4 |
| 20260503041818 | 48 | 354 | 3.5 | 5.2 | 0.00 | 0.00 | 0.00 | 94 | 1017.4 |
| 20260503041615 | 48 | 357 | 2.6 | 5.2 | 0.00 | 0.00 | 0.00 | 94 | 1017.4 |
| 20260503041417 | 48 | 356 | 3.5 | 5.2 | 0.00 | 0.00 | 0.00 | 94 | 1017.4 |
| 20260503041217 | 48 | 353 | 3.5 | 6.1 | 0.00 | 0.00 | 0.00 | 94 | 1017.2 |
| 20260503041017 | 48 | 349 | 2.6 | 6.1 | 0.00 | 0.00 | 0.00 | 94 | 1017.2 |
| 20260503040816 | 48 | 347 | 2.6 | 6.1 | 0.00 | 0.00 | 0.00 | 94 | 1017.2 |
| 20260503040606 | 48 | 350 | 2.6 | 6.1 | 0.00 | 0.00 | 0.00 | 94 | 1017.2 |
| 20260503040402 | 48 | 219 | 2.6 | 6.1 | 0.00 | 0.00 | 0.00 | 94 | 1017.2 |
| 20260503040202 | 48 | 233 | 1.7 | 5.2 | 0.00 | 0.00 | 0.00 | 94 | 1017.2 |
| 20260503040001 | 48 | 359 | 2.6 | 5.2 | 0.00 | 0.00 | 0.00 | 94 | 1017.2 |
| 20260503035758 | 48 | 359 | 2.6 | 6.1 | 0.00 | 0.00 | 0.00 | 94 | 1017.1 |
| 20260503035603 | 48 | 209 | 2.6 | 6.1 | 0.00 | 0.00 | 0.00 | 94 | 1017.1 |
| 20260503035400 | 48 | 352 | 3.5 | 6.1 | 0.00 | 0.00 | 0.00 | 94 | 1017.1 |
| 20260503035227 | 48 | 357 | 3.5 | 7.0 | 0.00 | 0.00 | 0.00 | 94 | 1017.1 |
| 20260503035046 | 48 | 222 | 3.5 | 7.0 | 0.00 | 0.00 | 0.00 | 94 | 1017.1 |
| 20260503034914 | 48 | 356 | 3.5 | 7.0 | 0.00 | 0.00 | 0.00 | 94 | 1017.1 |
| 20260503034555 | 48 | 357 | 3.5 | 7.0 | 0.00 | 0.00 | 0.00 | 94 | 1017.1 |
| 20260503034357 | 48 | 359 | 3.5 | 7.0 | 0.00 | 0.00 | 0.00 | 94 | 1017.0 |
| 20260503034156 | 48 | 236 | 3.5 | 7.0 | 0.00 | 0.00 | 0.00 | 94 | 1017.0 |
| 20260503034008 | 48 | 352 | 3.5 | 7.0 | 0.00 | 0.00 | 0.00 | 94 | 1017.0 |
| 20260503033840 | 48 | 354 | 3.5 | 7.0 | 0.00 | 0.00 | 0.00 | 93 | 1017.0 |
| 20260503033707 | 48 | 352 | 3.5 | 7.0 | 0.00 | 0.00 | 0.00 | 93 | 1017.0 |
| 20260503033527 | 48 | 357 | 2.6 | 7.0 | 0.00 | 0.00 | 0.00 | 93 | 1017.0 |
| 20260503033353 | 48 | 357 | 2.6 | 7.0 | 0.00 | 0.00 | 0.00 | 93 | 1017.0 |
| 20260503033216 | 48 | 357 | 2.6 | 7.0 | 0.00 | 0.00 | 0.00 | 93 | 1017.0 |
| 20260503033053 | 48 | 243 | 2.6 | 7.0 | 0.00 | 0.00 | 0.00 | 93 | 1016.8 |
| 20260503032903 | 48 | 359 | 2.6 | 6.1 | 0.00 | 0.00 | 0.00 | 93 | 1016.8 |
| 20260503032718 | 48 | 357 | 2.6 | 6.1 | 0.00 | 0.00 | 0.00 | 93 | 1016.8 |
| 20260503032328 | 48 | 357 | 2.6 | 6.1 | 0.00 | 0.00 | 0.00 | 93 | 1016.8 |
| 20260503032117 | 49 | 357 | 1.7 | 6.1 | 0.00 | 0.00 | 0.00 | 93 | 1016.8 |
| 20260503031846 | 49 | 240 | 1.7 | 6.1 | 0.00 | 0.00 | 0.00 | 93 | 1016.8 |
| 20260503031605 | 49 | 347 | 1.7 | 5.2 | 0.00 | 0.00 | 0.00 | 92 | 1016.8 |
| 20260503031357 | 49 | 356 | 1.7 | 5.2 | 0.00 | 0.00 | 0.00 | 92 | 1016.6 |
| 20260503031158 | 49 | 356 | 0.9 | 5.2 | 0.00 | 0.00 | 0.00 | 92 | 1016.6 |
| 20260503031005 | 49 | 359 | 0.9 | 5.2 | 0.00 | 0.00 | 0.00 | 92 | 1016.6 |
| 20260503030821 | 49 | 357 | 0.9 | 5.2 | 0.00 | 0.00 | 0.00 | 92 | 1016.6 |
| 20260503030518 | 49 | 359 | 0.9 | 5.2 | 0.00 | 0.00 | 0.00 | 92 | 1016.6 |
| 20260503030311 | 49 | 357 | 0.0 | 2.6 | 0.00 | 0.00 | 0.00 | 92 | 1016.6 |
| 20260503030105 | 49 | 232 | 0.9 | 4.3 | 0.00 | 0.00 | 0.00 | 92 | 1016.6 |
| 20260503025912 | 49 | 359 | 0.9 | 4.3 | 0.00 | 0.00 | 0.00 | 92 | 1016.8 |
| 20260503025455 | 49 | 354 | 2.6 | 7.0 | 0.00 | 0.00 | 0.00 | 91 | 1016.8 |
| 20260503025310 | 49 | 354 | 2.6 | 7.0 | 0.00 | 0.00 | 0.00 | 91 | 1016.8 |
| 20260503025120 | 49 | 241 | 2.6 | 7.0 | 0.00 | 0.00 | 0.00 | 91 | 1016.8 |
| 20260503024912 | 49 | 234 | 2.6 | 7.0 | 0.00 | 0.00 | 0.00 | 91 | 1016.8 |
| 20260503024706 | 49 | 356 | 2.6 | 7.0 | 0.00 | 0.00 | 0.00 | 91 | 1016.8 |
| 20260503024504 | 49 | 260 | 3.5 | 7.0 | 0.00 | 0.00 | 0.00 | 91 | 1016.8 |
| 20260503024316 | 49 | 257 | 3.5 | 7.0 | 0.00 | 0.00 | 0.00 | 91 | 1016.8 |
| 20260503024118 | 49 | 248 | 3.5 | 7.0 | 0.00 | 0.00 | 0.00 | 91 | 1016.8 |
| 20260503023909 | 49 | 356 | 3.5 | 7.0 | 0.00 | 0.00 | 0.00 | 91 | 1016.8 |
| 20260503023653 | 49 | 244 | 4.3 | 7.0 | 0.00 | 0.00 | 0.00 | 91 | 1016.8 |
| 20260503023449 | 49 | 354 | 3.5 | 7.0 | 0.00 | 0.00 | 0.00 | 91 | 1016.8 |
| 20260503023251 | 49 | 0 | 3.5 | 7.0 | 0.00 | 0.00 | 0.00 | 91 | 1016.8 |
| 20260503023050 | 49 | 354 | 2.6 | 7.0 | 0.00 | 0.00 | 0.00 | 91 | 1016.8 |
| 20260503022841 | 49 | 354 | 1.7 | 7.0 | 0.00 | 0.00 | 0.00 | 91 | 1016.5 |
| 20260503022642 | 49 | 247 | 0.9 | 5.2 | 0.00 | 0.00 | 0.00 | 91 | 1016.5 |
| 20260503022459 | 49 | 357 | 0.9 | 4.3 | 0.00 | 0.00 | 0.00 | 91 | 1016.5 |
| 20260503022315 | 49 | 357 | 0.0 | 0.9 | 0.00 | 0.00 | 0.00 | 91 | 1016.5 |
| 20260503022026 | 49 | 347 | 0.0 | 0.9 | 0.00 | 0.00 | 0.00 | 91 | 1016.5 |
| 20260503021803 | 49 | 347 | 0.0 | 0.9 | 0.00 | 0.00 | 0.00 | 91 | 1016.5 |